Showing default

BRO-13, 59107

Orbit data source: Space-Track

BRO-13, 59107 is a payload satellite owned by Unseen Labs (FR) in SSO that was launched on Mon, 04 Mar 2024 UTC via an FALCON 9 launch vehicle from the Air Force Western Test Range (AFWTR). Payload-class satellites include a variety of spacecraft equipped with specific instruments for various scientific and technological missions. These include communications satellites like Starlink; space stations such as the ISS; scientific satellites like the Hubble; Earth observation satellites from companies like Planet Labs, Umbra, and HawkEye 360; GPS; miniature CubeSats for education and research; and military/defense satellites.

Loading next visibility...
Identifier
59107, 2024-043K
Orbit
SSO
Country
Flag of FRFR
Related business
Manufacturer
GOMSpace
Mission
Operational Commercial Sigint
Bus & Motor
CUBESAT 8U, Unknown motor
Mass
15 kg wet, ~15 kg dry
Launch date (UTC)
2024-03-04 (2 years ago)
Launch vehicle
FALCON 9
Launch site
Air Force Western Test Range (AFWTR)
Object type
Payload
Rocket body
Debris
Shape & HBR
Box, 0.2 m
Radar Cross Section
0.100 m², Medium (>0.1 m² and < 1m²)

Expand to show TLE details & history
Last TLE update: 7 hours ago

TLE from 7 hours ago
0 BRO-13
1 59107U 24043K   26034.28847485  .00002048  00000-0  18699-3 0  9996
2 59107  97.8282 165.0892 0010121  86.6107 273.6271 14.96149190104595
Epoch: 2026-02-03T06:55Z
TLE epoch observation values (Epoch: 2026-02-03T06:55:24.227Z)
Latitude
-0.00005°
Longitude
-72.2333°
Altitude
581.415 km
Speed
7.57 km/s
True Right ascension
11h 00m 21s
True Declination
0° 00' 00"
Sunlit
Object was in full shadow at epoch
Visualization orbit readout
Latitude
Unknown
Longitude
Unknown
Altitude
Unknown
Speed
Unknown
Apparent Right ascension
Unknown
Apparent Declination
Unknown
Sunlit
N/A
Visualization observer readout
Local Sidereal Time
15:39:35
Azimuth
Unknown
Elevation
Unknown
Doppler factor
Unknown
Orbital elements
Apogee altitude
582.862 km
Perigee altitude
568.786 km
Semi-major axis
6,953.961 km
Eccentricity
0.00101
Inclination
97.8282°
RAAN
165.0892°
Arg. of periapsis
86.6107°
True anomaly
273.51135°
Mean anomaly
273.6271°
Eccentric anomaly
273.56922°
Mean motion
3.74278 °/min
Orbital period
96.19 mins
BSTAR
0.00018699
Loading maneuver chart data...
Computing Atmospheric mass density...
Loading historical data...
Loading historical data...
Loading historical data...
Loading historical data...
Loading historical data...
Loading historical data...
Loading historical data...

Documentation

Showing up to 5 results
|